FENGYUN 1C DEB, 30848

Orbit data source: Space-Track

FENGYUN 1C DEB, 30848 is space debris in SSO originally from a launch on Mon, 10 May 1999 UTC launched from the Taiyaun Space Center, China (TSC). Fengyun 1C debris stems from the Chinese weather satellite Fengyun-1C, which was intentionally destroyed by a Chinese anti-satellite missile in 2007. This event dramatically increased the amount of space debris, with thousands of trackable fragments posing hazards to satellites and human spaceflight. The Fengyun 1C debris cloud has become a focal point in discussions about space sustainability and the need for international regulations to prevent the creation of new debris.

Loading next visibility...
Identifier
30848, 1999-025AWJ
Orbit
SSO
Country
Flag of CNCN / PRC
Related business
Manufacturer
Unknown
Mission
Spacecraft
Bus & Motor
Unknown
Mass
Unknown
Launch date (UTC)
1999-05-10 (27 years ago)
Launch vehicle
Unknown
Launch site
Taiyaun Space Center, China (TSC)
Object type
Payload
Rocket body
Debris
Shape & HBR
Unknown shape, 0.1 m
Radar Cross Section
Small (<0.1 m²)

Expand to show TLE details & history
Last TLE update: 17 hours ago

TLE from 17 hours ago
0 FENGYUN 1C DEB
1 30848U 99025AWJ 26255.04305754  .00001495  00000-0  52691-3 0  9991
2 30848  99.0404 108.2362 0041289 256.7194 102.9384 14.35936778 12284
Epoch: 2026-09-12T01:02Z
TLE epoch observation values (Epoch: 2026-09-12T01:02:00.171Z)
Latitude
0.00001°
Longitude
101.67776°
Altitude
781.607 km
Speed
7.46 km/s
True Right ascension
07h 12m 56s
True Declination
0° 00' 00"
Sunlit
Object was in daylight at epoch
Visualization orbit readout
Latitude
Unknown
Longitude
Unknown
Altitude
Unknown
Speed
Unknown
Apparent Right ascension
Unknown
Apparent Declination
Unknown
Sunlit
N/A
Visualization observer readout
Local Sidereal Time
10:20:49
Azimuth
Unknown
Elevation
Unknown
Doppler factor
Unknown
Orbital elements
Apogee altitude
798.619 km
Perigee altitude
739.598 km
Semi-major axis
7,147.245 km
Eccentricity
0.00413
Inclination
99.0404°
RAAN
108.2362°
Arg. of periapsis
256.7194°
True anomaly
103.39899°
Mean anomaly
102.9384°
Eccentric anomaly
103.16875°
Mean motion
3.59199 °/min
Orbital period
100.22 mins
BSTAR
0.00052691
Loading maneuver chart data...
Computing Atmospheric mass density...

Documentation

Showing up to 5 results
|